カタログに戻る

COSMOS 2251 DEB

運用中LEO
NORAD 34564·DEBRIS·🇷🇺 Russia

打ち上げ Jun 16, 1993 から Plesetsk Cosmodrome

Loading…

次のパス (今後24時間)

TLE

最新Source: Space-Track

元期: Sep 14, 2026, 08:23 UTC

1 34564U 93036VA  26257.34938701  .00000404  00000-0  13335-3 0  9996
2 34564  74.0304  87.9048 0018414 129.7922 286.9633 14.41069968919765

AllMySatでCOSMOS 2251 DEBをリアルタイム追跡

Download on the App Store